Weather History for KMRC - November, 2013

Change the Weather History Date:

Wednesday, November 13, 2013

  Actual Average (KBNA) Record (KBNA)
Temperature  
Mean Temperature 34 °F 51 °F  
Max Temperature 44 °F 61 °F 79 °F (1985)
Min Temperature 23 °F 40 °F 18 °F (1911)
Degree Days  
Heating Degree Days 32    
Month to date heating degree days  
Since 1 July heating degree days  
Cooling Degree Days 0    
Month to date cooling degree days  
Year to date cooling degree days  
Moisture  
Dew Point 23 °F    
Average Humidity 75    
Maximum Humidity 100    
Minimum Humidity 34    
Precipitation  
Precipitation 0.00 in 0.13 in 1.24 in (1889)
Month to date precipitation 1.61  
Year to date precipitation 40.31  
Snow  
Snow 0.00 in 0.00 in T in (1975)
Month to date snowfall 0.0  
Since 1 July snowfall T  
Since 1 September snowfall T  
Snow Depth -    
Sea Level Pressure  
Sea Level Pressure 30.56 in    
Wind  
Wind Speed 3 mph (NE)    
Max Wind Speed 10 mph    
Max Gust Speed -    
Visibility 10 miles    
Events      
T = Trace of Precipitation, MM = Missing Value Source: NWS Daily Summary

Daily Weather History Graph

Daily Weather History Graph

Search for Another Location

Airport or City:

Trip Planner

Search our weather history database for the weather conditions in past years. The results will help you decide how hot, cold, wet, or windy it might be!

Date:

Astronomy

Nov. 13, 2013 Rise Set
Actual Time 6:22 AM CST 4:43 PM CST
Civil Twilight 5:55 AM CST 5:10 PM CST
Nautical Twilight 5:24 AM CST 5:40 PM CST
Astronomical Twilight 4:54 AM CST 6:11 PM CST
Moon 2:23 PM CST (11/13) 2:22 AM CST (11/13)
Length of Visible Light 11h 14m
Length of Day
10h 20m
Waxing Gibbous, 85% of the Moon is Illuminated
Nov 13
Waxing Gibbous
Nov 17
Full
Nov 25
Last Quarter
Dec 2
New
Dec 9
First Quarter

Hourly Weather History & Observations

Time (CST) Temp. Windchill Dew Point Humidity Pressure Visibility Wind Dir Wind Speed Gust Speed Precip Events Conditions
12:15 AM 28.4 °F 24.6 °F 24.8 °F 86% 30.59 in 10.0 mi North 3.5 mph - N/A   Clear
12:35 AM 28.4 °F 24.6 °F 24.8 °F 86% 30.59 in 10.0 mi North 3.5 mph - N/A   Clear
12:55 AM 28.4 °F 24.6 °F 24.8 °F 86% 30.59 in 10.0 mi North 3.5 mph - N/A   Clear
1:15 AM 28.4 °F 24.6 °F 24.8 °F 86% 30.59 in 10.0 mi North 3.5 mph - N/A   Clear
1:35 AM 26.6 °F 22.6 °F 24.8 °F 93% 30.59 in 10.0 mi North 3.5 mph - N/A   Clear
1:55 AM 26.6 °F 22.6 °F 24.8 °F 93% 30.58 in 10.0 mi North 3.5 mph - N/A   Clear
2:15 AM 26.6 °F - 26.6 °F 100% 30.59 in 10.0 mi Calm Calm - N/A   Clear
2:35 AM 26.6 °F - 26.6 °F 100% 30.59 in 10.0 mi Calm Calm - N/A   Clear
2:55 AM 26.6 °F - 24.8 °F 93% 30.58 in 10.0 mi Calm Calm - N/A   Clear
3:15 AM 24.8 °F - 24.8 °F 100% 30.59 in 10.0 mi Calm Calm - N/A   Clear
3:35 AM 24.8 °F - 24.8 °F 100% 30.59 in 10.0 mi Calm Calm - N/A   Clear
3:55 AM 24.8 °F 20.5 °F 24.8 °F 100% 30.59 in 10.0 mi North 3.5 mph - N/A   Clear
4:15 AM 24.8 °F - 24.8 °F 100% 30.61 in 10.0 mi Calm Calm - N/A   Clear
4:35 AM 24.8 °F 20.5 °F 24.8 °F 100% 30.61 in 10.0 mi NNW 3.5 mph - N/A   Clear
4:55 AM 24.8 °F 20.5 °F 24.8 °F 100% 30.63 in 10.0 mi North 3.5 mph - N/A   Clear
5:15 AM 24.8 °F 20.5 °F 24.8 °F 100% 30.63 in 10.0 mi North 3.5 mph - N/A   Clear
5:35 AM 23.0 °F - 23.0 °F 100% 30.63 in 10.0 mi Calm Calm - N/A   Clear
5:55 AM 23.0 °F - 23.0 °F 100% 30.64 in 10.0 mi Calm Calm - N/A   Clear
6:15 AM 23.0 °F - 23.0 °F 100% 30.64 in 10.0 mi Calm Calm - N/A   Clear
6:35 AM 23.0 °F - 23.0 °F 100% 30.66 in 10.0 mi Calm Calm - N/A   Clear
6:55 AM 24.8 °F - 24.8 °F 100% 30.67 in 10.0 mi Calm Calm - N/A   Clear
7:15 AM 24.8 °F - 24.8 °F 100% 30.67 in 10.0 mi Calm Calm - N/A   Clear
7:35 AM 26.6 °F 22.6 °F 26.6 °F 100% 30.68 in 10.0 mi North 3.5 mph - N/A   Clear
7:55 AM 28.4 °F 24.6 °F 28.4 °F 100% 30.68 in 10.0 mi North 3.5 mph - N/A   Clear
8:15 AM 30.2 °F 25.4 °F 30.2 °F 100% 30.68 in 10.0 mi NE 4.6 mph - N/A   Clear
8:35 AM 32.0 °F 27.5 °F 30.2 °F 93% 30.67 in 10.0 mi NE 4.6 mph - N/A   Clear
8:55 AM 33.8 °F 27.7 °F 28.4 °F 81% 30.66 in 10.0 mi NE 6.9 mph - N/A   Clear
9:15 AM 35.6 °F 28.0 °F 24.8 °F 65% 30.66 in 10.0 mi ENE 10.4 mph - N/A   Clear
9:35 AM 35.6 °F 29.2 °F 23.0 °F 60% 30.66 in 10.0 mi East 8.1 mph - N/A   Clear
9:55 AM 37.4 °F 32.1 °F 23.0 °F 56% 30.65 in 10.0 mi ENE 6.9 mph - N/A   Clear
10:15 AM 37.4 °F 31.4 °F 21.2 °F 52% 30.65 in 10.0 mi ENE 8.1 mph - N/A   Clear
10:35 AM 39.2 °F 33.6 °F 21.2 °F 49% 30.63 in 10.0 mi ESE 8.1 mph - N/A   Clear
10:55 AM 39.2 °F 34.2 °F 21.2 °F 49% 30.62 in 10.0 mi East 6.9 mph - N/A   Clear
11:15 AM 41.0 °F 37.1 °F 21.2 °F 45% 30.61 in 10.0 mi Variable 5.8 mph - N/A   Clear
11:35 AM 42.8 °F 41.1 °F 21.2 °F 42% 30.59 in 10.0 mi Variable 3.5 mph - N/A   Clear
11:55 AM 42.8 °F 41.1 °F 21.2 °F 42% 30.58 in 10.0 mi East 3.5 mph - N/A   Clear
12:15 PM 42.8 °F - 19.4 °F 39% 30.57 in 10.0 mi Calm Calm - N/A   Clear
12:35 PM 42.8 °F - 19.4 °F 39% 30.56 in 10.0 mi Calm Calm - N/A   Clear
12:55 PM 44.6 °F 40.2 °F 17.6 °F 34% 30.55 in 10.0 mi NNE 8.1 mph - N/A   Clear
1:15 PM 44.6 °F 43.1 °F 19.4 °F 37% 30.55 in 10.0 mi Variable 3.5 mph - N/A   Clear
1:35 PM 44.6 °F 42.2 °F 19.4 °F 37% 30.54 in 10.0 mi Variable 4.6 mph - N/A   Clear
1:55 PM 44.6 °F 41.4 °F 19.4 °F 37% 30.53 in 10.0 mi NE 5.8 mph - N/A   Clear
2:15 PM 44.6 °F 43.1 °F 19.4 °F 37% 30.52 in 10.0 mi NE 3.5 mph - N/A   Clear
2:35 PM 44.6 °F 41.4 °F 19.4 °F 37% 30.51 in 10.0 mi NE 5.8 mph - N/A   Clear
2:55 PM 44.6 °F 43.1 °F 17.6 °F 34% 30.51 in 10.0 mi Variable 3.5 mph - N/A   Clear
3:15 PM 44.6 °F 43.1 °F 17.6 °F 34% 30.50 in 10.0 mi ENE 3.5 mph - N/A   Clear
3:35 PM 44.6 °F 43.1 °F 17.6 °F 34% 30.50 in 10.0 mi ENE 3.5 mph - N/A   Clear
3:55 PM 44.6 °F 43.1 °F 17.6 °F 34% 30.50 in 10.0 mi North 3.5 mph - N/A   Clear
4:15 PM 44.6 °F - 17.6 °F 34% 30.49 in 10.0 mi Calm Calm - N/A   Clear
4:35 PM 42.8 °F 41.1 °F 17.6 °F 36% 30.49 in 10.0 mi North 3.5 mph - N/A   Clear
4:55 PM 42.8 °F - 17.6 °F 36% 30.48 in 10.0 mi Calm Calm - N/A   Clear
5:15 PM 37.4 °F - 19.4 °F 48% 30.48 in 10.0 mi Calm Calm - N/A   Clear
5:35 PM 35.6 °F - 19.4 °F 52% 30.48 in 10.0 mi Calm Calm - N/A   Clear
5:55 PM 33.8 °F - 21.2 °F 60% 30.48 in 10.0 mi Calm Calm - N/A   Clear
6:15 PM 33.8 °F - 23.0 °F 65% 30.48 in 10.0 mi Calm Calm - N/A   Clear
6:35 PM 33.8 °F - 24.8 °F 70% 30.48 in 10.0 mi Calm Calm - N/A   Clear
6:55 PM 28.4 °F 24.6 °F 24.8 °F 86% 30.48 in 10.0 mi SSW 3.5 mph - N/A   Clear
7:15 PM 30.2 °F 26.7 °F 23.0 °F 75% 30.48 in 10.0 mi South 3.5 mph - N/A   Clear
7:35 PM 30.2 °F - 26.6 °F 86% 30.48 in 10.0 mi Calm Calm - N/A   Clear
7:55 PM 28.4 °F - 26.6 °F 93% 30.48 in 10.0 mi Calm Calm - N/A   Clear
8:15 PM 28.4 °F - 26.6 °F 93% 30.47 in 10.0 mi Calm Calm - N/A   Clear
8:35 PM 28.4 °F - 26.6 °F 93% 30.46 in 10.0 mi Calm Calm - N/A   Clear
8:55 PM 26.6 °F 21.2 °F 26.6 °F 100% 30.47 in 10.0 mi SSW 4.6 mph - N/A   Clear
9:15 PM 26.6 °F 22.6 °F 26.6 °F 100% 30.46 in 10.0 mi South 3.5 mph - N/A   Clear
9:35 PM 26.6 °F - 26.6 °F 100% 30.45 in 10.0 mi Calm Calm - N/A   Clear
9:55 PM 26.6 °F - 26.6 °F 100% 30.46 in 10.0 mi Calm Calm - N/A   Clear
10:15 PM 26.6 °F - 26.6 °F 100% 30.45 in 10.0 mi Calm Calm - N/A   Clear
10:35 PM 26.6 °F - 24.8 °F 93% 30.44 in 10.0 mi Calm Calm - N/A   Clear
10:55 PM 26.6 °F - 24.8 °F 93% 30.44 in 10.0 mi Calm Calm - N/A   Clear
11:35 PM 23.0 °F - 23.0 °F 100% 30.43 in 10.0 mi Calm Calm - N/A   Clear
11:55 PM 24.8 °F - 24.8 °F 100% 30.43 in 10.0 mi Calm Calm - N/A   Clear